Hourly Weather Otrebusy

Today, 1 August, Sunday

Time Temperature Precipitation Wind Pressure Humidity
00:00 +19°C° 0 mm 3 mps 747 mmHg 74%
01:00 +19°C° 0 mm 2 mps 747 mmHg 72%
02:00 +19°C° 0 mm 2 mps 747 mmHg 70%
03:00 +18°C° 0 mm 2 mps 747 mmHg 69%
04:00 +19°C° 0 mm 1 mps 747 mmHg 67%
05:00 +20°C° 0 mm 1 mps 747 mmHg 63%
06:00 +21°C° 0 mm 1 mps 747 mmHg 59%
07:00 +22°C° 0 mm 1 mps 748 mmHg 55%
08:00 +23°C° 0 mm 1 mps 747 mmHg 53%
09:00 +24°C° 0 mm 1 mps 747 mmHg 50%
10:00 +25°C° 0 mm 1 mps 747 mmHg 47%
11:00 +24°C° 0.4 mm 2 mps 747 mmHg 58%
12:00 +21°C° 0.4 mm 2 mps 747 mmHg 68%
13:00 +19°C° 0.4 mm 3 mps 747 mmHg 79%
14:00 +19°C° 0.7 mm 3 mps 747 mmHg 83%
15:00 +18°C° 0.7 mm 3 mps 747 mmHg 87%
16:00 +17°C° 0.7 mm 3 mps 747 mmHg 91%
17:00 +17°C° 0.1 mm 3 mps 747 mmHg 90%
18:00 +17°C° 0.1 mm 3 mps 747 mmHg 89%
19:00 +17°C° 0.1 mm 3 mps 746 mmHg 88%
20:00 +17°C° 0 mm 3 mps 746 mmHg 89%
21:00 +17°C° 0 mm 3 mps 747 mmHg 89%
22:00 +16°C° 0 mm 3 mps 747 mmHg 90%
23:00 +16°C° 0 mm 3 mps 746 mmHg 90%

Tomorrow, 2 August, Monday

Time Temperature Precipitation Wind Pressure Humidity
00:00 +16°C° 0 mm 2 mps 746 mmHg 90%
01:00 +16°C° 0 mm 2 mps 746 mmHg 90%
02:00 +16°C° 0 mm 2 mps 746 mmHg 90%
03:00 +16°C° 0 mm 2 mps 746 mmHg 90%
04:00 +16°C° 0 mm 2 mps 746 mmHg 90%
05:00 +16°C° 0.2 mm 3 mps 747 mmHg 90%
06:00 +16°C° 0.2 mm 3 mps 747 mmHg 90%
07:00 +16°C° 0.2 mm 3 mps 747 mmHg 90%
08:00 +18°C° 0.2 mm 3 mps 747 mmHg 84%
09:00 +19°C° 0.2 mm 4 mps 748 mmHg 77%
10:00 +20°C° 0.2 mm 4 mps 748 mmHg 71%
11:00 +21°C° 0.2 mm 4 mps 748 mmHg 66%
12:00 +22°C° 0.2 mm 4 mps 748 mmHg 60%
13:00 +23°C° 0.2 mm 5 mps 748 mmHg 55%
14:00 +23°C° 0.1 mm 5 mps 748 mmHg 55%
15:00 +23°C° 0.1 mm 5 mps 748 mmHg 55%
16:00 +23°C° 0.1 mm 6 mps 748 mmHg 55%
17:00 +21°C° 0.2 mm 5 mps 748 mmHg 63%
18:00 +20°C° 0.2 mm 4 mps 749 mmHg 70%
19:00 +18°C° 0.2 mm 3 mps 749 mmHg 78%
20:00 +18°C° 0 mm 3 mps 749 mmHg 79%
21:00 +17°C° 0 mm 3 mps 750 mmHg 81%
22:00 +16°C° 0 mm 3 mps 750 mmHg 82%
23:00 +16°C° 0 mm 3 mps 750 mmHg 82%

Day after tomorrow, 3 August, Tuesday

Time Temperature Precipitation Wind Pressure Humidity
00:00 +14°C° 0 mm 3 mps 751 mmHg 82%
01:00 +13°C° 0 mm 3 mps 751 mmHg 81%
02:00 +13°C° 0 mm 3 mps 751 mmHg 80%
03:00 +13°C° 0 mm 3 mps 751 mmHg 80%
04:00 +14°C° 0 mm 2 mps 751 mmHg 79%
05:00 +14°C° 0 mm 3 mps 751 mmHg 75%
06:00 +17°C° 0 mm 3 mps 752 mmHg 72%
07:00 +18°C° 0 mm 4 mps 752 mmHg 68%
08:00 +19°C° 0 mm 4 mps 752 mmHg 61%
09:00 +21°C° 0 mm 4 mps 752 mmHg 54%
10:00 +22°C° 0 mm 4 mps 752 mmHg 47%
11:00 +23°C° 0 mm 4 mps 752 mmHg 44%
12:00 +23°C° 0 mm 4 mps 752 mmHg 41%
13:00 +25°C° 0 mm 4 mps 752 mmHg 38%
14:00 +25°C° 0 mm 4 mps 752 mmHg 38%
15:00 +25°C° 0 mm 4 mps 752 mmHg 38%
16:00 +25°C° 0 mm 4 mps 752 mmHg 38%
17:00 +24°C° 0 mm 3 mps 752 mmHg 44%
18:00 +23°C° 0 mm 2 mps 752 mmHg 49%
19:00 +21°C° 0 mm 1 mps 752 mmHg 54%
20:00 +21°C° 0 mm 1 mps 752 mmHg 55%
21:00 +19°C° 0 mm 2 mps 752 mmHg 56%
22:00 +18°C° 0 mm 2 mps 752 mmHg 57%
23:00 +18°C° 0 mm 2 mps 752 mmHg 57%

4 August, Wednesday

Time Temperature Precipitation Wind Pressure Humidity
00:00 +18°C° 0 mm 2 mps 752 mmHg 57%
01:00 +18°C° 0 mm 2 mps 752 mmHg 57%
02:00 +18°C° 0 mm 2 mps 752 mmHg 61%
03:00 +17°C° 0 mm 2 mps 752 mmHg 65%
04:00 +17°C° 0 mm 2 mps 751 mmHg 69%
05:00 +18°C° 0.1 mm 3 mps 752 mmHg 68%
06:00 +19°C° 0.1 mm 3 mps 752 mmHg 68%
07:00 +20°C° 0.1 mm 3 mps 752 mmHg 67%
08:00 +22°C° 0 mm 3 mps 752 mmHg 61%
09:00 +24°C° 0 mm 3 mps 752 mmHg 55%
10:00 +26°C° 0 mm 3 mps 751 mmHg 48%
11:00 +27°C° 0 mm 3 mps 751 mmHg 46%
12:00 +28°C° 0 mm 3 mps 751 mmHg 44%
13:00 +29°C° 0 mm 3 mps 750 mmHg 42%
14:00 +27°C° 0.7 mm 4 mps 750 mmHg 52%
15:00 +25°C° 0.7 mm 4 mps 750 mmHg 63%
16:00 +22°C° 0.7 mm 4 mps 750 mmHg 74%
17:00 +21°C° 0.6 mm 3 mps 750 mmHg 77%
18:00 +20°C° 0.6 mm 2 mps 750 mmHg 81%
19:00 +20°C° 0.6 mm 1 mps 750 mmHg 84%
20:00 +19°C° 0 mm 2 mps 750 mmHg 86%
21:00 +18°C° 0 mm 2 mps 750 mmHg 88%
22:00 +18°C° 0 mm 2 mps 750 mmHg 90%
23:00 +17°C° 0 mm 2 mps 750 mmHg 91%

5 August, Thursday

Time Temperature Precipitation Wind Pressure Humidity
00:00 +17°C° 0 mm 2 mps 750 mmHg 92%
01:00 +17°C° 0 mm 2 mps 750 mmHg 92%
02:00 +16°C° 0 mm 2 mps 749 mmHg 93%
03:00 +16°C° 0 mm 2 mps 749 mmHg 93%
04:00 +16°C° 0 mm 2 mps 749 mmHg 93%
05:00 +16°C° 0.2 mm 2 mps 749 mmHg 92%
06:00 +16°C° 0.2 mm 3 mps 749 mmHg 91%
07:00 +17°C° 0.2 mm 3 mps 749 mmHg 90%
08:00 +16°C° 0.6 mm 3 mps 749 mmHg 91%
09:00 +16°C° 0.6 mm 2 mps 749 mmHg 92%
10:00 +16°C° 0.6 mm 2 mps 749 mmHg 92%
11:00 +16°C° 1.3 mm 2 mps 749 mmHg 92%
12:00 +16°C° 1.3 mm 2 mps 749 mmHg 92%
13:00 +16°C° 1.3 mm 2 mps 749 mmHg 93%
14:00 +17°C° 0 mm 2 mps 749 mmHg 88%
15:00 +17°C° 0 mm 2 mps 748 mmHg 84%
16:00 +18°C° 0 mm 2 mps 748 mmHg 80%
17:00 +18°C° 0 mm 2 mps 748 mmHg 82%
18:00 +17°C° 0 mm 2 mps 747 mmHg 84%
19:00 +17°C° 0 mm 2 mps 747 mmHg 86%
20:00 +16°C° 0 mm 2 mps 747 mmHg 87%
21:00 +16°C° 0 mm 2 mps 747 mmHg 88%
22:00 +14°C° 0 mm 3 mps 747 mmHg 89%
23:00 +16°C° 0 mm 3 mps 747 mmHg 87%

6 August, Friday

Time Temperature Precipitation Wind Pressure Humidity
00:00 +16°C° 0 mm 3 mps 746 mmHg 85%
01:00 +16°C° 0 mm 3 mps 746 mmHg 82%
02:00 +14°C° 0 mm 3 mps 746 mmHg 83%
03:00 +14°C° 0 mm 3 mps 746 mmHg 85%
04:00 +13°C° 0 mm 3 mps 746 mmHg 86%
05:00 +14°C° 0 mm 3 mps 746 mmHg 81%
06:00 +17°C° 0 mm 4 mps 746 mmHg 76%
07:00 +18°C° 0 mm 4 mps 746 mmHg 72%
08:00 +19°C° 0 mm 5 mps 746 mmHg 65%
09:00 +21°C° 0 mm 5 mps 746 mmHg 58%
10:00 +22°C° 0 mm 6 mps 747 mmHg 51%
11:00 +23°C° 0 mm 6 mps 746 mmHg 48%
12:00 +24°C° 0 mm 6 mps 746 mmHg 44%
13:00 +26°C° 0 mm 7 mps 746 mmHg 41%
14:00 +24°C° 0 mm 6 mps 746 mmHg 45%
15:00 +23°C° 0 mm 5 mps 746 mmHg 48%
16:00 +22°C° 0 mm 5 mps 746 mmHg 52%
17:00 +21°C° 0 mm 4 mps 746 mmHg 56%
18:00 +21°C° 0 mm 3 mps 746 mmHg 61%
19:00 +20°C° 0 mm 3 mps 746 mmHg 65%
20:00 +19°C° 0.1 mm 3 mps 746 mmHg 70%
21:00 +18°C° 0.1 mm 3 mps 746 mmHg 75%
22:00 +17°C° 0.1 mm 3 mps 746 mmHg 80%
23:00 +17°C° 0.1 mm 3 mps 747 mmHg 83%
Show more